Tracking 35237 objects as of 6-Sep-2026
HD Live streaming from Space Station
objects crossing your sky now

GRBALPHA


GRBALPHA is no longer on orbit
GRBALPHA is classified as:


NORAD ID: 47941
Int'l Code: 2021-022K
Launch date: March 22, 2021
Source: (TBD)
Launch site: TYURATAM MISSILE AND SPACE COMPLEX (TTMTR)
Decay date: 2026-03-06

Uplink (MHz):
Downlink (MHz): 435.310
Beacon (MHz):
Mode: 1k2/9k6* FSK
Call sign:
Status: Active


Uplink (MHz):
Downlink (MHz): 435.310
Beacon (MHz):
Mode: 1k2/9k6* FSK
Call sign:
Status: Active

Your satellite tracking list
Your tracking list is empty




NASA's NSSDC Master Catalog

Two Line Element Set (TLE):
1 47941U 21022K   26065.29297773  .08759150  26401-5  74904-3 0  9997
2 47941  97.3721 347.4784 0005874 201.7073 158.3978 16.39544551275308
Source of the keplerian elements: AFSPC